INTELSAT 36 (IS-36)     
1 41747U 16053A   19259.71577270 -.00000031  00000-0  00000-0 0  9995
2 41747   0.0129 171.4311 0002401 187.7833 322.3272  1.00269791 11243
INTELSAT 33E (IS-33E)   
1 41748U 16053B   19259.86368844  .00000042  00000-0  00000-0 0  9998
2 41748   0.0193  97.6723 0002243  90.3656 178.4250  1.00273884 11522
ARIANE 5 R/B            
1 41749U 16053C   19259.68107550 -.00000077  00000-0  11620-3 0  9996
2 41749   6.4776  24.7846 7244261  24.6976 357.0313  2.31481684 25767